Home > Weather > Baku > Past weeks

Flag for Azerbaijan Weather for the Past 2 Weeks in Baku, Azerbaijan

Now
68 °F

Sunny.


Feels Like: 68 °F
Forecast: 54 / 71 °F
Wind: 13 mph from Northeast

Location: Baku / Bine Airport

Current Time: May 6, 2016 at 1:25:19 PM

Latest Report: May 6, 2016 at 1:00 PM


Visibility: 10 mi

Pressure: 29.86 "Hg

Humidity: 56%

Dew Point: 52 °F

Location of BakuLocation

Historic Weather in Baku — Graph

°F

Baku Temperature Yesterday

Maximum temperature yesterday: 72 °F (at 1:30 PM)
Minimum temperature yesterday: 57 °F (at 12:00 AM)
Average temperature yesterday: 62 °F

High & Low Weather Summary for the Past Weeks

 TemperatureHumidityPressure
High81 °F (Apr 27, 2:30 PM)100% (May 3, 1:00 AM)30.36 "Hg (May 3, 1:00 AM)
Low43 °F (Apr 23, 12:00 AM)34% (Apr 21, 6:30 PM)29.59 "Hg (Apr 26, 3:00 AM)
Average60 °F76%29.92 "Hg
* Reported Apr 21 12:00 Noon — May 6 12:00 Noon, Baku, Weather by CustomWeather, © 2016

Note: Actual official high and low records may vary slightly from our data, if they occured in-between our weather recording intervals... More about our weather records

Advertising

Baku Weather History for the Previous 24 Hours

Scroll right to see more
 ConditionsComfort  
Time TempWeatherWind HumidityBarometerVisibility
12:00 PM
Fri, May 6
68 °FSunny.7 mph53%29.89 "Hg10 mi
11:30 AM68 °FSunny.7 mph53%29.89 "Hg10 mi
11:00 AM68 °FSunny.9 mph56%29.89 "Hg10 mi
10:30 AM68 °FSunny.7 mph53%29.89 "Hg10 mi
10:00 AM66 °FSunny.8 mph56%29.89 "Hg10 mi
9:30 AM66 °FSunny.9 mph60%29.89 "Hg10 mi
9:00 AM64 °FSunny.9 mph64%29.92 "Hg10 mi
8:30 AM64 °FSunny.10 mph64%29.89 "Hg10 mi
8:00 AM64 °FSunny.10 mph64%29.89 "Hg10 mi
7:30 AM63 °FSunny.12 mph68%29.89 "Hg10 mi
7:00 AM59 °FSunny.10 mph82%29.89 "Hg10 mi
6:30 AM57 °FSunny.7 mph82%29.89 "Hg10 mi
6:00 AM55 °FSunny.8 mph88%29.89 "Hg10 mi
5:30 AM55 °FClear.9 mph88%29.86 "Hg10 mi
5:00 AM54 °FClear.8 mph94%29.86 "Hg10 mi
4:30 AM55 °FClear.6 mph88%29.86 "Hg10 mi
4:00 AM55 °FClear.10 mph88%29.86 "Hg10 mi
3:30 AM55 °FClear.9 mph88%29.86 "Hg10 mi
3:00 AM55 °FClear.9 mph88%29.86 "Hg10 mi
2:30 AM57 °FClear.9 mph82%29.86 "Hg10 mi
2:00 AM57 °FClear.9 mph82%29.86 "Hg10 mi
1:30 AM57 °FClear.9 mph82%29.86 "Hg10 mi
1:00 AM57 °FClear.9 mph82%29.86 "Hg10 mi
12:30 AM57 °FClear.10 mph82%29.86 "Hg10 mi
12:00 AM57 °FClear.8 mph88%29.86 "Hg10 mi
11:30 PM
Thu, May 5
57 °FClear.8 mph88%29.86 "Hg10 mi
11:00 PM57 °FClear.9 mph88%29.86 "Hg10 mi
10:30 PM57 °FClear.8 mph88%29.86 "Hg10 mi
10:00 PM57 °FClear.9 mph88%29.86 "Hg10 mi
9:30 PM57 °FClear.8 mph88%29.86 "Hg10 mi
9:00 PM57 °FClear.8 mph82%29.86 "Hg10 mi
8:30 PM59 °FClear.9 mph82%29.86 "Hg10 mi
8:00 PM59 °FClear.13 mph82%29.83 "Hg10 mi
7:30 PM61 °FSunny.15 mph77%29.83 "Hg10 mi
7:00 PM63 °FSunny.14 mph73%29.80 "Hg10 mi
6:30 PM63 °FSunny.16 mph73%29.80 "Hg10 mi
6:00 PM64 °FSunny.17 mph68%29.80 "Hg10 mi
5:30 PM64 °FSunny.15 mph68%29.80 "Hg10 mi
5:00 PM68 °FSunny.16 mph60%29.80 "Hg10 mi
4:30 PM68 °FSunny.17 mph60%29.77 "Hg10 mi
4:00 PM68 °FSunny.18 mph60%29.77 "Hg10 mi
3:30 PM70 °FSunny.18 mph53%29.77 "Hg10 mi
3:00 PM70 °FSunny.20 mph53%29.77 "Hg10 mi
2:30 PM72 °FSunny.20 mph50%29.77 "Hg10 mi
2:00 PM72 °FSunny.20 mph50%29.74 "Hg10 mi
1:30 PM72 °FPartly sunny.16 mph50%29.77 "HgN/A
1:00 PM70 °FPartly sunny.17 mph53%29.77 "HgN/A
Weather by CustomWeather, © 2016

See weather overviewHow to use our weather pages